Weather Roundup
Issued by NWS Chicago, IL

Home | Current Version | Previous Version | Text Only | Print | Product List | Glossary Off
Versions: 1 2 3 4 5 6 7 8 9 10 11 12 13 14 15 16 17 18 19 20 21 22 23 24 25 26 27 28 29 30 31 32 33 34 35 36 37 38 39 40 41 42 43 44 45 46 47 48 49 50

000
NZUS59 KLOT 230509
HRRLOT

CHICAGO AREA WEATHER ROUNDUP
NATIONAL WEATHER SERVICE CHICAGO/ROMEOVILLE IL
1200 AM CDT TUE MAY 23 2017

NOTE: "FAIR" INDICATES FEW OR NO CLOUDS BELOW 12,000 FEET WITH NO
SIGNIFICANT WEATHER AND/OR OBSTRUCTIONS TO VISIBILITY.

* THESE STATIONS ARE NOT UNDER NWS QUALITY CONTROL. THEY ALSO MAY NOT
  REPORT WEATHER SUCH AS PRECIPITATION OR FOG.

ILZ005-006-012>014-019>023-230600-
NORTHEAST ILLINOIS

CITY           SKY/WX    TMP DP  RH WIND       PRES   REMARKS
OHARE          CLOUDY    60  53  77 SW6       29.88F
MIDWAY         CLOUDY    61  54  77 SW10      29.89F
AURORA         CLOUDY    60  55  83 S10       29.89F
LANSING*       DRIZZLE   59  55  87 SW8       29.92F
WAUKEGAN       PTCLDY    58  54  86 SW14      29.86F
DUPAGE AIRPORT CLOUDY    58  55  90 S7        29.88F
WHEELING       MOCLDY    60  55  83 S9        29.88F
KANKAKEE*      LGT RAIN  59  54  83 SW6       29.94F
MORRIS*        CLOUDY    59  55  84 SW9       29.90F
LEWIS AIRPORT* CLOUDY    59  56  91 SW14      29.90S
NORTHERLY ISL    N/A     61  52  72 S7          N/A
$$

WIZ051-052-058>065-066-070>072-230600-
SOUTHEAST WISCONSIN

CITY           SKY/WX    TMP DP  RH WIND       PRES   REMARKS
MILWAUKEE      CLOUDY    62  53  72 SW9       29.85F
KENOSHA*       PTCLDY    59  53  80 SW9       29.86F
RACINE*        CLOUDY    60  52  74 SW9G18    29.87S
WAUKESHA       CLOUDY    55  52  88 SW7       29.86S
WEST BEND      CLOUDY    54  54 100 SW3       29.84S
$$

INZ001>003-010>013-019-020-230600-
NORTHWEST INDIANA

CITY           SKY/WX    TMP DP  RH WIND       PRES   REMARKS
GARY*          LGT RAIN  63  51  66 S7        29.92S
MICHIGAN CITY* NOT AVBL
RENSSELAER*    NOT AVBL
VALPARAISO     CLOUDY    62  53  72 SW7       29.93S
$$

LMZ740>746-230600-
SOUTHERN LAKE MICHIGAN

STATION/POSITION TIME  SKY/WX   TEMP WIND        PRES    VSBY
                                AIR  DIR/SP/G
                 (UTC)          (F)  (DEG/KT/KT) (MB)    (MI)
HARRISON CRIB    0440            62  220/ 21/ 24   N/A
BURNHAM HARBOR   0500            61  210/  5/ 10   N/A
CALUMET HARBOR   0448            62  200/  6/ 10 1012.0F
BURNS HARBOR     0440            62  220/ 12/ 16 1013.5F
MICHIGAN CITY    0440            62  190/  7/  8   N/A
$$

ABBREVIATIONS USED IN REMARKS
   TC - TEMPERATURE IN CELSIUS
  WCI - WIND CHILL INDEX
   HX - HEAT INDEX
  VSB - VISIBILITY
$$



USA.gov is the U.S. government's official web portal to all federal, state and local government web resources and services.